SKYNET 5C

Last updated on Sun Jun 21 2026 00:03:04 GMT+0000 (Coordinated Universal Time)

1 33055U 08030A 26171.38851713 -.00000145 00000+0 00000+0 0 9999 2 33055 3.7981 77.0053 0004099 19.6039 294.0630 1.00271687 65982
UTC large
Height (km)
Speed (km/s)
/
Latitude / Longitude
Inclination (degrees)
Orbital Period (minutes)
Azimuth
Elevation
Range (km)
Doppler Factor

Next 0 passes for location: London (51.5072 / 0.1276)

No passes found over London.
SKYNET 5C